Peoria, IL

1:47 PM CST on November 12, 2019 (GMT -0600)
Greater Peoria Regional

Weather History for KPIA - September, 2019

Change the Weather History Date:

Sunday, September 22, 2019

  Actual Average Record
Temperature  
Mean Temperature 72 °F 63 °F  
Max Temperature 75 °F 75 °F 94 °F (2017)
Min Temperature 68 °F 52 °F 34 °F (1995)
Degree Days  
Heating Degree Days 0 4  
Month to date heating degree days 0 41  
Since 1 July heating degree days 0 47  
Cooling Degree Days 7 2  
Month to date cooling degree days 185 102  
Year to date cooling degree days 1167 1009  
Growing Degree Days 22 (Base 50)    
Moisture  
Dew Point 67 °F    
Average Humidity 87    
Maximum Humidity 97    
Minimum Humidity 69    
Precipitation  
Precipitation 0.91 in 0.10 in 3.18 in (1970)
Month to date precipitation 3.68 2.37  
Year to date precipitation 37.20 27.32  
Snow  
Snow 0.00 in 0.00 in 0.00 in ()
Month to date snowfall 0.0 0.0  
Since 1 July snowfall 0.0 0.0  
Since 1 September snowfall 0.0 0.0  
Snow Depth 0.00 in    
Sea Level Pressure  
Sea Level Pressure 29.90 in    
Wind  
Wind Speed 10 mph ()    
Max Wind Speed 24 mph    
Max Gust Speed 34 mph    
Visibility 6.7 miles    
Events Rain    
T = Trace of Precipitation, MM = Missing Value Source: Averaged Metar Reports

Daily Weather History Graph

Daily Weather History Graph

Search for Another Location

Airport or City:

Astronomy

Sep. 22, 2019 Rise Set
Actual Time 6:46 AM CDT 6:56 PM CDT
Civil Twilight 6:18 AM CDT 7:23 PM CDT
Nautical Twilight 5:46 AM CDT 7:55 PM CDT
Astronomical Twilight 5:14 AM CDT 8:27 PM CDT
Moon No Moon Rise 2:53 PM CDT (9/22)
Length of Visible Light 13h 04m
Length of Day
12h 10m
Last Quarter, 44% of the Moon is Illuminated
Sep 22
Last Quarter
Sep 28
New
Oct 5
First Quarter
Oct 13
Full
Oct 21
Last Quarter

Hourly Weather History & Observations

Time (CDT) Temp. Dew Point Humidity Pressure Visibility Wind Dir Wind Speed Gust Speed Precip Events Conditions
12:31 AM 72.0 °F 69.1 °F 91% 30.01 in 1.8 mi SW 9.2 mph - 0.03 in Rain Heavy Rain
12:35 AM 72.0 °F 69.1 °F 91% 30.01 in 1.2 mi SSW 12.7 mph 21.9 mph 0.11 in Rain Heavy Rain
12:39 AM 72.0 °F 69.1 °F 91% 30.01 in 1.5 mi SSW 13.8 mph 21.9 mph 0.20 in Rain Rain
12:54 AM 72.0 °F 69.1 °F 91% 29.99 in 9.0 mi SW 5.8 mph - 0.23 in Rain Light Rain
1:54 AM 72.0 °F 69.1 °F 91% 29.98 in 10.0 mi South 6.9 mph - 0.00 in   Overcast
2:54 AM 73.0 °F 68.0 °F 84% 29.96 in 10.0 mi South 9.2 mph - N/A   Overcast
3:54 AM 72.0 °F 66.9 °F 84% 29.94 in 10.0 mi SSW 12.7 mph - N/A   Mostly Cloudy
4:54 AM 72.0 °F 66.9 °F 84% 29.94 in 10.0 mi SSW 9.2 mph - N/A   Overcast
5:54 AM 71.1 °F 66.9 °F 87% 29.94 in 10.0 mi South 10.4 mph - 0.04 in   Overcast
6:54 AM 72.0 °F 66.0 °F 81% 29.92 in 10.0 mi SSW 13.8 mph - N/A   Partly Cloudy
7:54 AM 73.0 °F 64.9 °F 76% 29.92 in 10.0 mi SSW 15.0 mph - N/A   Mostly Cloudy
8:54 AM 73.0 °F 64.0 °F 73% 29.91 in 10.0 mi South 16.1 mph 25.3 mph N/A   Overcast
9:54 AM 75.0 °F 64.9 °F 71% 29.91 in 10.0 mi SW 15.0 mph - N/A   Overcast
10:54 AM 75.9 °F 64.9 °F 69% 29.91 in 10.0 mi SW 15.0 mph - N/A   Overcast
11:54 AM 73.9 °F 66.0 °F 76% 29.92 in 10.0 mi SW 13.8 mph - 0.00 in Rain Light Rain
12:54 PM 72.0 °F 66.9 °F 84% 29.90 in 6.0 mi SW 10.4 mph - 0.02 in Rain Light Rain
1:02 PM 72.0 °F 66.9 °F 84% 29.91 in 1.5 mi WSW 9.2 mph - 0.01 in Rain Heavy Rain
1:09 PM 71.1 °F 66.9 °F 87% 29.91 in 1.2 mi SW 9.2 mph - 0.10 in Rain Rain
1:13 PM 71.1 °F 68.0 °F 90% 29.91 in 2.0 mi SW 10.4 mph - 0.10 in Rain Rain
1:20 PM 71.1 °F 68.0 °F 90% 29.90 in 4.0 mi SW 10.4 mph - 0.11 in Rain Light Rain
1:42 PM 71.1 °F 68.0 °F 90% 29.90 in 2.0 mi SSW 9.2 mph - 0.16 in Rain Heavy Rain
1:54 PM 71.1 °F 68.0 °F 90% 29.88 in 4.0 mi SSW 8.1 mph - 0.19 in Rain Light Rain
2:54 PM 71.1 °F 68.0 °F 90% 29.84 in 10.0 mi South 5.8 mph - 0.03 in   Overcast
3:54 PM 72.0 °F 69.1 °F 91% 29.81 in 10.0 mi South 8.1 mph - 0.00 in   Overcast
4:54 PM 72.0 °F 68.0 °F 87% 29.81 in 2.5 mi SW 17.3 mph 27.6 mph 0.02 in Rain Light Rain
5:07 PM 72.0 °F 68.0 °F 87% 29.82 in 10.0 mi SSW 19.6 mph 27.6 mph 0.01 in Rain Light Rain
5:54 PM 73.0 °F 68.0 °F 84% 29.82 in 10.0 mi SW 18.4 mph 28.8 mph 0.01 in   Overcast
6:15 PM 73.0 °F 68.0 °F 84% 29.84 in 10.0 mi WSW 16.1 mph 25.3 mph N/A   Overcast
6:39 PM 73.0 °F 68.0 °F 84% 29.85 in 10.0 mi WSW 12.7 mph - N/A   Overcast
6:54 PM 73.0 °F 68.0 °F 84% 29.84 in 10.0 mi WSW 8.1 mph - 0.00 in Rain Light Rain
7:54 PM 71.1 °F 68.0 °F 90% 29.86 in 6.0 mi WSW 9.2 mph - 0.07 in Rain Light Rain
8:45 PM 71.1 °F 69.1 °F 93% 29.88 in 3.0 mi WSW 9.2 mph - 0.04 in Rain Rain
8:54 PM 71.1 °F 68.0 °F 90% 29.88 in 4.0 mi West 9.2 mph - 0.06 in Rain Light Rain
9:14 PM 70.0 °F 68.0 °F 93% 29.90 in 2.5 mi West 10.4 mph - 0.03 in Rain Rain
9:25 PM 70.0 °F 68.0 °F 93% 29.90 in 3.0 mi West 5.8 mph - 0.06 in Rain Light Rain
9:36 PM 70.0 °F 68.0 °F 93% 29.90 in 6.0 mi WSW 6.9 mph - 0.06 in Rain Light Rain
9:54 PM 70.0 °F 68.0 °F 93% 29.89 in 5.0 mi West 4.6 mph - 0.09 in Rain Light Rain
10:31 PM 69.1 °F 66.9 °F 93% 29.90 in 2.0 mi West 5.8 mph - 0.08 in Rain Rain
10:44 PM 69.1 °F 66.9 °F 93% 29.91 in 4.0 mi West 6.9 mph - 0.13 in Rain Light Rain
10:48 PM 69.8 °F 66.2 °F 88% 29.91 in 8.0 mi West 4.6 mph - 0.13 in Rain Light Rain
10:54 PM 69.1 °F 66.9 °F 93% 29.90 in 5.0 mi West 6.9 mph - 0.13 in Rain Rain
11:06 PM 69.1 °F 66.9 °F 93% 29.91 in 10.0 mi WNW 4.6 mph - 0.02 in Rain Light Rain
11:21 PM 69.1 °F 66.9 °F 93% 29.90 in 10.0 mi NW 4.6 mph - 0.02 in   Overcast
11:54 PM 68.0 °F 66.0 °F 93% 29.90 in 10.0 mi West 3.5 mph - 0.02 in   Partly Cloudy